Location: Malvern Link
(52.1333°N, 2.3000°W)
Time: 01:39:53
(UTC+00:00)

QB50P2 - Pass Details

Date: 03 July 2022
Orbit: 590 x 605 km, 97.9° (Epoch: 15 August)

Event Time Altitude Azimuth Distance (km) Brightness Sun altitude
Rises 00:25:09 0° 28° (NNE) 2,864 ? -14.8°
Reaches altitude 10° 00:28:06 10° 50° (NE) 1,958 ? -14.8°
Maximum altitude 00:30:45 16° 89° (E) 1,596 ? -14.8°
Drops below altitude 10° 00:33:23 10° 128° (SE) 1,952 ? -14.8°
Enters shadow 00:33:37 - 130° (SE) 2,009 ? -14.8°
